Weather Roundup
Issued by NWS Corpus Christi, TX

Home | Current Version | Previous Version | Text Only | Print | Product List | Glossary On
Versions: 1 2 3 4 5 6 7 8 9 10 11 12 13 14 15 16 17 18 19 20 21 22 23 24 25 26 27 28 29 30 31 32 33 34 35 36 37 38 39 40 41 42 43 44 45 46 47 48 49 50
000
ASUS44 KCRP 252310
HRRCRP

SOUTH TEXAS REGIONAL WEATHER ROUNDUP
NATIONAL WEATHER SERVICE CORPUS CHRISTI TX
600 PM CDT SAT APR 25 2015


TXZ229>244-260000-
...CORPUS CHRISTI AREA OBSERVATIONS...

CITY           SKY/WX    TMP DP  RH WIND       PRES   REMARKS
CORPUS CHRISTI MOSUNNY   79  71  76 E13       29.72F
NAS CORPUS CHR CLOUDY    77  71  82 E10       29.72S
ROCKPORT       MOSUNNY   79  69  71 SE13      29.72F
KINGSVILLE NAS PTSUNNY   82  77  84 E10       29.71S HX  90
ALICE          MOSUNNY   86  74  67 E13       29.70F HX  94
FALFURRIAS     SUNNY     85  75  71 E9        29.69F HX  93
$$

...VICTORIA AREA OBSERVATIONS...

CITY           SKY/WX    TMP DP  RH WIND       PRES   REMARKS
VICTORIA       SUNNY     84  73  69 SE12      29.71F HX  90
BEEVILLE       FAIR      83  73  69 SE5       29.71F
PLEASANTON     SUNNY     89  59  36 S6        29.71F
SAN ANTONIO    MOSUNNY   89  55  31 SW10      29.71F
$$

...LAREDO AREA OBSERVATIONS...

CITY           SKY/WX    TMP DP  RH WIND       PRES   REMARKS
LAREDO         SUNNY     92  60  34 NE9       29.70F HX  91
COTULLA        SUNNY     92  57  30 VRB3      29.69F HX  90
DEL RIO        SUNNY     89  50  26 S5        29.69F
MCALLEN        MOSUNNY   91  75  59 E10       29.68F HX 101
HEBBRONVILLE   SUNNY     88  69  51 NE5       29.71F HX  92
$$

...OTHER TEXAS OBSERVATIONS...

CITY           SKY/WX    TMP DP  RH WIND       PRES   REMARKS
BROWNSVILLE    PTSUNNY   86  77  74 NE13      29.68F HX  97
HOUSTON        MOSUNNY   84  68  58 S9        29.70S
COL. STATION   SUNNY     88  56  33 SW7       29.68F
AUSTIN         MOSUNNY   88  58  36 S10       29.68S
WACO           SUNNY     86  48  26 W10       29.68R
FORT WORTH     SUNNY     86  46  24 W15       29.64R
WICHITA FALLS  SUNNY     84  49  29 SW14      29.61F
LUBBOCK        MOSUNNY   79  29  16 SW16      29.71F
EL PASO        MOSUNNY   80  12   7 SW20G36   29.80F
$$

...MARINE OBSERVATIONS...

STATION/POSITION TIME  SKY/WX   TEMP    WIND        PRES    VSBY  WAVE   SWELL
                                AIR SEA DIR/SP/G                  HT/PER HT/PER
                 (UTC)          (F)     (DEG/KT/KT) (MB)    (MI)  (FT/S) (FT/S)
PORT ARANSAS     2300            74 76   80/ 12/ 13 1007.1S
BUOY 90 E PORT A 2250            76 76  100/ 12/ 14 1006.8F         4/ 5
BUOY 45 SE BAFFI 2250            75 74   80/ 16/ 17 1005.4F         4/ 6
BUOY 200 E PT IS 2250            81 81   CALM  /  2 1007.1R         3/ 6   2/ 6
BUOY 15 E GALVES 2250            74 74  150/ 12/ 14 1005.9F         3/ 4   2/ 6
$$



USA.gov is the U.S. government's official web portal to all federal, state and local government web resources and services.